Find OneWeb SL0268

NORAD ID: 48986 Int'l Des: 2021-060 Owner: ONEWEBN Country: UK Constellation: oneweb operational
LEOCIRCULARPOLARONEWEB_TYPE

Live Position

Loading 3D Globe...

About OneWeb SL0268

Description loading...

Upcoming Passes

Passes for default location (London). Set your location on the main map for personalized predictions.

Altitude History

Loading altitude history...

Two-Line Element Set

1 48986U 21060V 26106.62753793 .00002080 00000-0 54050-2 0 9997
2 48986 87.9059 241.0088 0001858 102.3748 257.7591 13.16612136231759
Epoch: Apr 16, 2026 • Age: 21 hours

Current Status

Altitude 1209.7 km
Velocity 7.26 km/s
Sub-Earth Point 80.12°N, 28.74°E
Launch Date Jul 1, 2021
Age 4.7 years
Type internet

Technical Details

Classification Payload
Mass 148.00 kg
Dry Mass 140.00 kg
Total Mass 148.00 kg
Length 1.30 m
Diameter 1.00 m
Span 5.00 m
Shape Trapezoid+2 pan
Manufacturer ONEWUS
Bus Type ARROW
Phase Status In Orbit
Owner/State ONEWEBN/UK

Most Searched